You are here:
  • Home »
  • Tender »
  • Open Tender Enquiry

Open Tender Enquiry

3800-3701 3700-3601 3600-3501 3500-3401 3400-3301 3300-3201 3200-3101 3100-3001 3000-2901
2900-2801 2800-2701 2700-2601 2600-2501 2500-2401 2400-2301 2300-2201 2200-2101
2100-2001 2000-1901 1900-1801 1800-1701 1700-1601 1600-1501 1500-1401 1400-1301
1300-1201 1200-1101 1100-1001 1000-901 900-801 800-701 700-601 600-501
500-401 400-301 300-201 200-101 100-1 1300-1251 1250-1201 1200-1151
1150-1101 1100-1051 1050-1001 1000-951 950-901 900-851 850-801 800-751
750-701 700-651 650-601 600-551 550-501 500-451 450-401 400-351
350-301 300-251 250-201 200-151 150-101 100-51 50-01

Sl.No. Enquiry No. Date Due on Short Description
3601 2/PE171715/1 23/02/2018 27/03/2018 SPARE FOR RT5000 UPS
3602 2/PE171749/1 23/02/2018 27/03/2018 QUARTZ CELL
3603 2/PE171205/7 23/02/2018 27/03/2018 RADON BUBBLER
3604 2/ PE171743/1 22/02/2018 26/03/2018 HDPE PIPE
3605 2/PE180007/1 19/02/2018 22/03/2018 NYLON BRAIDED PVC HOSE PIPE
3606 2/PE180129/1 22/02/2018 26/03/2018 BOILER SEQUENCE CONTROLLER
3607 2/PE180130/1 22/02/2018 26/03/2018 JAW CLUTCH
3608 2/PE172647/8 23/02/2018 27/03/2018 SPARES FOR CHEMFLO PUMP
3609 2/PE171734/1 22/02/2018 26/03/2018 SPARES FOR GE-FENUC PLC
3610 2/PE172626/8 23/02/2018 27/03/2018 CAST CARBON GATE VALVE
3611 2/PE172625/8 23/02/2018 27/03/2018 HD SUCTION/DELIVERY HOSE
3612 2/ PE172444/8 23/02/2018 27/03/2018 JUBILEE CLAMP
3613 2/PE172642/8 23/02/2018 27/03/2018 SPARES FOR CHEMFLO PUMP
3614 2/PE171714/1 23/02/2018 27/03/2018 SPARES FOR KDP-250 PUMP
3615 1/PE180139/7 27.02.2018 03.04.2018 Cutting Nozzle
3616 1/PE180140/7 27.02.2018 03.04.2018 Barrel Phospher Bronze
3617 1/PE180141/7 27.02.2018 03.04.2018 Wire Earthing
3618 1/PE180142/7 27.02.2018 03.04.2018 Clamp
3619 1/ PE180143/7 27.02.2018 03.04.2018 Spares for Volga
3620 1/PE180198/7 27.02.2018 03.04.2018 Steel Wire
3621 1/PE180199/7 27.02.2018 03.04.2018 Limit Switch
3622 1/PE180204/7 27.02.2018 03.04.2018 D-Shackle Cap
3623 1/PE180205/7 27.02.2018 03.04.2018 Switch
3624 1/PE180206/7 27.02.2018 03.04.2018 Combination Switch
3625 1/PE180241/1 27.02.2018 02.04.2018 Nitrogen Gas
3626 1/PE180250/1 27.02.2018 02.04.2018 Cup
3627 1/PE180252/1 27.02.2018 02.04.2018 Fire Extinguisher
3628 1/PE180253/1 27.02.2018 02.04.2018 Arch File
3629 1/PE180254/1 27.02.2018 02.04.2018 Register
3630 1/PE180255/1 27.02.2018 02.04.2018 Envelop
3631 1/PE180256/1 27.02.2018 02.04.2018 Carbon Paper
3632 1/PE180257/1 27.02.2018 02.04.2018 PVC Cables
3633 1/PE180259/1 27.02.2018 02.04.2018 Telephone Drop Wire
3634 1/PE180261/1 27.02.2018 02.04.2018 Brass Pendent Holder
3635 1/PE180263/1 27.02.2018 02.04.2018 Telephone Set
3636 1/PE180147/1 01.03.2018 04.04.2018 Printing Items
3637 1/PE180357/8 28.02.2018 04.04.2018 CC TV Monitor
3638 1/PE180458/8 28.02.2018 04.04.2018 Spares for Gate-End-Box
3639 1/PE180464/8 28.02.2018 04.04.2018 Computer
3640 1/PE180539/8 28.02.2018 04.04.2018 Ignjtor
3641 1/PE180586/8 28.02.2018 04.04.2018 Printing Items
3642 1/PE180587/8 28.02.2018 04.04.2018 Printing Items
3643 1/PE180588/8 28.02.2018 04.04.2018 Switch TPN
3644 1/PE180589/8 28.02.2018 04.04.2018 Switch
3645 1/PE180610/8 28.02.2018 04.04.2018 Relay
3646 3/PE180265/8 17/02/2018 19/03/2018 SWITCH ASSY.
3647 3/PE180264/8 17/02/2018 19/03/2018 SPARES FOR NORMET
3648 3/PE180267/8 17/02/2018 19/03/2018 SPARES FOR ST 710
3649 3/PE180105/1 17/02/2018 19/03/2018 MERCURY SWITCH
3650 3/PE180106/1 17/02/2018 19/03/2018 RUST CLEANER
3651 3/PE180079/1 17/02/2018 19/03/2018 EMERGENCY STOP SWITCH
3652 3/PE180266/8 17/02/2018 19/03/2018 WATER PUMP
3653 3/PE180523/8 17/02/2018 19/03/2018 SPARES FOR ST 3.5/710
3654 3/PE180154/7 23/02/2018 27/03/2018 G.I.SOCKET
3655 3/PE180092/7 23/02/2018 27/03/2018 INHIBITOR CORROSION
3656 3/PE180253/8 23/02/2018 27/03/2018 STRAIGHT GRINDER
3657 3/PE180306/8 23/02/2018 27/03/2018 HIGH PRESSURE INLINE PUMP
3658 3/PE180094/7 23/02/2018 27/03/2018 MCCB
3659 3/PE180093/7 23/02/2018 27/03/2018 SPARES FOR EJC 975/ ST 3.5
3660 3/PE180144/1 23/02/2018 27/03/2018 SENSOR
3661 3/PE180307/8 23/02/2018 27/03/2018 GREASE
3662 3/PE180136/1 23/02/2018 27/03/2018 TIME TOTALIZER
3663 3/PE180304/8 23/02/2018 27/03/2018 HIGH TEMP. GREASE
3664 3/PE180309/8 23/02/2018 27/03/2018 HEAVY DUTY BRAKE & CLUTCH
3665 3/PE180308/8 23/02/2018 27/03/2018 COOLANT HEAVY DUTY
3666 3/PE180513/8 23/02/2018 27/03/2018 SPLIT FLANGE
3667 3/PE180095/7 23/02/2018 27/03/2018 SEARCH LIGHT
3668 3/PE180305/8 23/02/2018 27/03/2018 BATTERY TERMINAL
3669 3/PE180141/1 23/02/2018 27/03/2018 PROFILE ASSY.
3670 3/PE180152/7 27/02/2018 29/03/2018 RAIN SUIT
3671 3/PE180076/1 27/02/2018 29/03/2018 SMF BATTERY
3672 3/PE180124/1 27/02/2018 29/03/2018 PAINTING BRUSH
3673 3/PE180142/1 27/02/2018 29/03/2018 SPARES FOR MT 431B
3674 3/PE180517/8 27/02/2018 29/03/2018 SPLIT FLANGE
3675 3/PE180149/7 27/02/2018 29/03/2018 G.I.REDUCER HEAVY DUTY
3676 2/PE171751/1 23/02/2018 27/03/2018 REMARKING PLATINUM DISH
3677 1/PE180286/1 27.02.2018 16.03.2018 Light Weight laptop
3678 1/PE180287/1 27.02.2018 16.03.2018 Desktop computer systems
3679 2/PE180285/1 27.02.2018 13.03.2018 Spare Parts of Draeger PSS BG 4 Plus Breathing apparatus
3680 1/PE180276/1 20.02.2018 27.03.2018 Air Circuit breaker
3681 2/PE 180248/1 14.02.2018 27.03.2018 Jaw Plates Set
3682 1-PE180260-1- 15.02.2018 27.03.2018 Print Applications
3683 1-PE180280-1- 24.02.2018 30.03.2018 SIEMENS Make Variable frequency drive
3684 1-PE180281-1- 24.02.2018 30.03.2018 Electronic Bell/Buzzer/Hooter
3685 1-PE180291-1 02.03.2018 06.04.2018 Copper Flats
3686 1-PE180295-1 02.03.2018 10.04.2018 Digital Insulation tester
3687 1-PE180296-1 02.03.2018 10.04.2018 Capacitors for cooling fan
3688 1-PE180312-1 03.03.2018 06.04.2018 Star Delta Starter
3689 1-PE180313-1 03.03.2018 06.04.2018 Air Cooler Copper motor winding 90 watts, Blade rust
3690 1-PE180314-1 03.03.2018 06.04.2018 Contactor spare kit
3691 2-PE180282-1- 24.02.2018 30.03.2018 Control Card
3692 2-PE180283-1- 24.02.2018 30.03.2018 Sprinkler set
3693 2-PE180290-1 02.03.2018 06.04.2018 Digital magnetic Stirrer hot plate
3694 2-PE180294-1 02.03.2018 06.04.2018 Maneurop Reciprocating Compressor
3695 2-PE180315-1 0303.2018 06.04.2018 Liquid Line Filter Drive
3696 2-PE180319-1 03.03.2018 06.04.2018 Temperature Transmitter
3697 2-PE180320-1 03.03.2018 10.04.2018 M.S.Trommel Screen for Ball Mill
3698 2/PE180046/8 19/02/2018 28/03/2018 SOLENOID COIL
3699 2/PE180045/8 19/02/2018 28/03/2018 CAST STEEL VALVE
3700 2/PE180013/1 19/02/2018 28/03/2018 SPARE FOR KIRLOSKAR COMPRESSOR